Rock Springs, WY

3:26 PM MDT on April 25, 2018 (GMT -0600)
Rock Springs-Sweetwater

Weather History for KRKS - April, 2014

Change the Weather History Date:

Friday, April 18, 2014

  Actual Average Record
Temperature  
Mean Temperature 57 °F 42 °F  
Max Temperature 71 °F 54 °F 73 °F (1981)
Min Temperature 42 °F 30 °F 12 °F (1966)
Degree Days  
Heating Degree Days 8 23  
Month to date heating degree days 417 451  
Since 1 July heating degree days 6755 7280  
Cooling Degree Days 0 0  
Month to date cooling degree days 0 0  
Year to date cooling degree days 0 0  
Growing Degree Days 6 (Base 50)    
Moisture  
Dew Point 24 °F    
Average Humidity 33    
Maximum Humidity 53    
Minimum Humidity 12    
Precipitation  
Precipitation 0.00 in 0.03 in 0.72 in (1966)
Month to date precipitation 0.17 0.50  
Year to date precipitation 0.75 2.11  
Sea Level Pressure  
Sea Level Pressure 29.79 in    
Wind  
Wind Speed 15 mph (SW)    
Max Wind Speed 39 mph    
Max Gust Speed 50 mph    
Visibility 10 miles    
Events      
T = Trace of Precipitation, MM = Missing Value Source: NWS Daily Summary

Daily Weather History Graph

Daily Weather History Graph

Search for Another Location

Airport or City:

Astronomy

Apr. 18, 2014 Rise Set
Actual Time 6:31 AM MDT 8:00 PM MDT
Civil Twilight 6:02 AM MDT 8:29 PM MDT
Nautical Twilight 5:27 AM MDT 9:04 PM MDT
Astronomical Twilight 4:50 AM MDT 9:41 PM MDT
Moon 11:50 PM MDT (4/18) 8:54 AM MDT (4/18)
Length of Visible Light 14h 26m
Length of Day
13h 28m
Waning Gibbous, 86% of the Moon is Illuminated
Apr 18
Waning Gibbous
Apr 22
Last Quarter
Apr 29
New
May 6
First Quarter
May 14
Full

Hourly Weather History & Observations

Time (MDT) Temp. Windchill Dew Point Humidity Pressure Visibility Wind Dir Wind Speed Gust Speed Precip Events Conditions
12:54 AM 44.1 °F 39.0 °F 19.9 °F 38% 29.88 in 10.0 mi SSE 9.2 mph - N/A   Clear
1:54 AM 44.1 °F 39.5 °F 19.9 °F 38% 29.85 in 10.0 mi SSE 8.1 mph - N/A   Clear
2:54 AM 43.0 °F 37.7 °F 19.9 °F 40% 29.81 in 10.0 mi SSE 9.2 mph - N/A   Clear
3:54 AM 42.1 °F 37.1 °F 19.9 °F 41% 29.80 in 10.0 mi South 8.1 mph - N/A   Clear
4:54 AM 45.0 °F 41.2 °F 21.0 °F 39% 29.79 in 10.0 mi South 6.9 mph - N/A   Clear
5:54 AM 48.0 °F - 21.0 °F 34% 29.78 in 10.0 mi SW 10.4 mph - N/A   Clear
6:54 AM 46.0 °F 41.0 °F 21.0 °F 37% 29.78 in 10.0 mi SW 10.4 mph - N/A   Clear
7:54 AM 55.0 °F - 23.0 °F 29% 29.77 in 10.0 mi SSW 11.5 mph 20.7 mph N/A   Clear
8:54 AM 57.0 °F - 21.9 °F 26% 29.78 in 10.0 mi SSW 15.0 mph - N/A   Clear
9:54 AM 59.0 °F - 21.0 °F 23% 29.75 in 10.0 mi SSW 26.5 mph 32.2 mph N/A   Clear
10:54 AM 66.0 °F - 21.9 °F 19% 29.75 in 10.0 mi South 23.0 mph 31.1 mph N/A   Partly Cloudy
11:54 AM 66.0 °F - 21.9 °F 19% 29.73 in 10.0 mi South 27.6 mph 36.8 mph N/A   Clear
12:54 PM 69.1 °F - 19.9 °F 15% 29.70 in 10.0 mi SSW 27.6 mph 41.4 mph N/A   Clear
1:54 PM 70.0 °F - 16.0 °F 13% 29.71 in 10.0 mi WSW 27.6 mph 43.7 mph N/A   Partly Cloudy
2:54 PM 68.0 °F - 17.1 °F 14% 29.73 in 10.0 mi West 29.9 mph 42.6 mph N/A   Partly Cloudy
3:54 PM 62.1 °F - 26.1 °F 25% 29.78 in 10.0 mi WNW 21.9 mph 33.4 mph N/A   Clear
4:54 PM 57.0 °F - 32.0 °F 39% 29.83 in 10.0 mi WNW 16.1 mph - N/A   Clear
5:54 PM 55.9 °F - 32.0 °F 40% 29.83 in 10.0 mi NW 12.7 mph - N/A   Overcast
6:54 PM 55.0 °F - 30.0 °F 38% 29.83 in 10.0 mi WSW 8.1 mph - N/A   Overcast
7:54 PM 54.0 °F - 28.0 °F 37% 29.81 in 10.0 mi West 3.5 mph - N/A   Overcast
8:54 PM 54.0 °F - 28.9 °F 38% 29.83 in 10.0 mi NW 11.5 mph - N/A   Overcast
9:54 PM 51.1 °F - 32.0 °F 48% 29.86 in 10.0 mi WNW 10.4 mph - N/A   Overcast
10:54 PM 50.0 °F - 32.0 °F 50% 29.83 in 10.0 mi WNW 19.6 mph 26.5 mph N/A   Mostly Cloudy
11:54 PM 46.9 °F - 30.9 °F 54% 29.84 in 10.0 mi West 10.4 mph - N/A   Clear